This is the latest recevied weather packets stored in our database for station/object N9NDF. If no packets are shown the sender has not sent any weather packets the latest 10 day(s).
| Time | Temp. | Humidity | Pressure | Rain* | Wind** | Luminosity | Snow |
|---|---|---|---|---|---|---|---|
| 1777565202 | 16.67° C | 41% | 994.9 hPa | 0 mm | - | 824 W/m² | - |
| 1777565139 | 16.67° C | 42% | 994.9 hPa | 0 mm | - | 827 W/m² | - |
| 1777565089 | 16.67° C | 42% | 995 hPa | 0 mm | - | 816 W/m² | - |
| 1777565019 | 16.67° C | 46% | 995 hPa | 0 mm | - | 827 W/m² | - |
| 1777564959 | 16.67° C | 44% | 995 hPa | 0 mm | - | 857 W/m² | - |
| 1777564899 | 16.67° C | 44% | 995 hPa | 0 mm | - | 863 W/m² | - |
| 1777564853 | 16.11° C | 44% | 995 hPa | 0 mm | - | 863 W/m² | - |
| 1777564783 | 16.11° C | 43% | 995 hPa | 0 mm | - | 878 W/m² | - |
| 1777564718 | 16.11° C | 43% | 995.1 hPa | 0 mm | - | 876 W/m² | - |
| 1777564657 | 16.11° C | 43% | 995 hPa | 0 mm | - | 859 W/m² | - |
| 1777564594 | 16.11° C | 43% | 995.1 hPa | 0 mm | - | 843 W/m² | - |
| 1777564533 | 16.11° C | 42% | 995.1 hPa | 0 mm | - | 835 W/m² | - |
| 1777564477 | 16.11° C | 42% | 995.1 hPa | 0 mm | - | 830 W/m² | - |
| 1777564410 | 16.11° C | 42% | 995 hPa | 0 mm | - | 829 W/m² | - |
| 1777564350 | 16.11° C | 44% | 995.1 hPa | 0 mm | - | 826 W/m² | - |
| 1777564291 | 16.11° C | 44% | 995.1 hPa | 0 mm | - | 823 W/m² | - |
| 1777564251 | 16.11° C | 43% | 995.1 hPa | 0 mm | - | 819 W/m² | - |
| 1777564234 | 16.11° C | 44% | 995.1 hPa | 0 mm | - | 815 W/m² | - |
| 1777564110 | 16.11° C | 45% | 995.1 hPa | 0 mm | - | 812 W/m² | - |
| 1777564051 | 16.11° C | 46% | 995.1 hPa | 0 mm | - | 808 W/m² | - |
| 1777563991 | 15.56° C | 46% | 995.1 hPa | 0 mm | - | 802 W/m² | - |
| 1777563953 | 15.56° C | 46% | 995.1 hPa | 0 mm | - | 796 W/m² | - |
| 1777563936 | 15.56° C | 45% | 995.1 hPa | 0 mm | - | 801 W/m² | - |
| 1777563810 | 15.56° C | 45% | 995.1 hPa | 0 mm | - | 796 W/m² | - |
| 1777563751 | 15.56° C | 45% | 995.2 hPa | 0 mm | - | 796 W/m² | - |
* Rain latest hour (hover to see other rain measurements)
** Current wind speed in m/s (hover to see current wind gust speed)